Regional Weather Roundup
Issued by NWS

Home | Current Version | Previous Version | Graphics & Text | Print | Product List | Glossary On
Versions: 1 2 3 4 5 6 7 8 9 10 11 12 13 14 15 16 17 18 19 20 21 22 23 24 25 26 27 28 29 30 31 32 33 34 35 36 37 38 39 40 41 42 43 44 45 46 47 48 49 50
000
ASUS43 KMKX 171421
RWRWI

WISCONSIN REGIONAL WEATHER ROUNDUP
NATIONAL WEATHER SERVICE MILWAUKEE/SULLIVAN WI
800 AM CST FRI NOV 17 2017

NOTE: "FAIR" INDICATES FEW OR NO CLOUDS BELOW 12,000 FEET WITH NO
SIGNIFICANT WEATHER AND/OR OBSTRUCTIONS TO VISIBILITY.

WIZ001-002-006>008-014>016-023>028-171500-
NORTHWEST WISCONSIN

CITY           SKY/WX    TMP DP  RH WIND       PRES   REMARKS
SUPERIOR ARPT  CLOUDY    34  30  87 S5        29.75F WCI  29
ASHLAND        CLOUDY    35  26  69 S12G20    29.77F WCI  27
HAYWARD        CLOUDY    34  26  72 S14G26    29.75F WCI  25
SIREN          MIX PCPN  34  30  85 S7        29.74F WCI  28
CUMBERLAND     CLOUDY    32  28  86 S15G21    29.75S WCI  22
RICE LAKE      CLOUDY    34  28  80 SE14      29.78F WCI  25
CHETEK         CLOUDY    34  28  80 SE15      29.79F WCI  24
LADYSMITH      CLOUDY    34  29  82 SE8G20    29.81F WCI  27
EAU CLAIRE     CLOUDY    35  28  75 S10       29.81S WCI  27
MENOMONIE      CLOUDY    36  29  78 SE10      29.79S WCI  28
NEW RICHMOND   CLOUDY    36  28  74 SE13G18   29.74F WCI  27
OSCEOLA        RAIN      35  31  86 S12       29.76F WCI  27
$$

WIZ003>005-009-010-017-018-171500-
NORTH CENTRAL WISCONSIN

CITY           SKY/WX    TMP DP  RH WIND       PRES   REMARKS
MANITOWISH WTR MIX PCPN  30  30 100 S16       29.82R WCI  19
ARBOR VITAE    CLOUDY    32  29  90 S12G21    29.83F WCI  23
WOODRUFF       CLOUDY    32  29  90 S12G21    29.83F WCI  23
RHINELANDER    CLOUDY    31  29  92 S12G20    29.86F WCI  22
EAGLE RIVER    CLOUDY    31  30  97 S10G24    29.85F WCI  22
LAND O LAKES   CLOUDY    31  29  91 S13G25    29.85F WCI  22
PHILLIPS       CLOUDY    32  28  86 SE14G22   29.80F WCI  22
TOMAHAWK       CLOUDY    31  27  87 S3        29.86S
MEDFORD        CLOUDY    31  27  84 SE13G23   29.82F WCI  22
MERRILL        CLOUDY    32  29  88 SE10      29.88F WCI  24
$$

WIZ029-030-035-036-043>047-171500-
CENTRAL WISCONSIN

CITY           SKY/WX    TMP DP  RH WIND       PRES   REMARKS
WAUSAU         CLOUDY    32  28  85 SE13G21   29.88F WCI  22
MOSINEE        CLOUDY    32  30  93 SE14G23   29.90F WCI  22
MARSHFIELD     CLOUDY    33  27  78 SE17G25   29.85F WCI  22
STEVENS POINT  CLOUDY    32  29  90 SE15      29.91F WCI  21
WAUPACA        CLOUDY    36  31  81 SE16G23   29.96F WCI  26
WAUTOMA        CLOUDY    34  29  82 S12       29.97F WCI  25
WISC RAPIDS    CLOUDY    34  28  79 S9G20     29.92F WCI  27
CAMP DOUGLAS   CLOUDY    36  28  75 SE12      29.88F WCI  27
$$

WIZ011>013-019>022-031-037>040-048>050-171500-
NORTHEAST WISCONSIN

CITY           SKY/WX    TMP DP  RH WIND       PRES   REMARKS
ANTIGO         CLOUDY    31  30  96 SE20G28   29.90F WCI  18
SHAWANO        CLOUDY    36  32  85 SE10G17   29.95F WCI  29
OCONTO         CLOUDY    37  35  90 SE9       30.00F WCI  31
STURGEON BAY   CLOUDY    38  35  89 SE14G24   30.02F WCI  30
GREEN BAY      CLOUDY    37  35  92 S14       30.00F WCI  28
MANITOWOC      CLOUDY    39  35  86 S16       30.04F WCI  30
APPLETON       CLOUDY    36  30  80 S13       29.99F WCI  27
CLINTONVILLE   CLOUDY    34  30  86 SE10      29.95F WCI  26
OSHKOSH        CLOUDY    35  30  82 S13       30.00F WCI  26
$$

WIZ032>034-041-042-053>061-171500-
SOUTHWEST WISCONSIN

CITY           SKY/WX    TMP DP  RH WIND       PRES   REMARKS
LA CROSSE      CLOUDY    38  30  73 S14       29.84F WCI  30
SPARTA         CLOUDY    35  30  80 SE10G16   29.86F WCI  28
VIROQUA        CLOUDY    33  32  94 SE21      29.82F WCI  22
BOSCOBEL       CLOUDY    37  29  72 VRB6      29.92F WCI  32
PRAIRIE DU CHI CLOUDY    36  29  76 SE10      29.88F WCI  28
PLATTEVILLE    CLOUDY    35  32  90 SE10      29.93F WCI  27
$$

WIZ056-057-062-063-064-067-068-171500-
SOUTH CENTRAL WISCONSIN

CITY           SKY/WX    TMP DP  RH WIND       PRES   REMARKS
REEDSBURG      CLOUDY    33  29  85 SE10G16   29.91F WCI  25
BARABOO/DELLS  CLOUDY    33  29  83 S15       29.94F WCI  23
LONE ROCK      CLOUDY    35  30  82 SE9       29.94F WCI  28
MINERAL POINT  CLOUDY    34  34 100 SE21G26   29.93S WCI  22
MADISON        CLOUDY    34  29  82 S18       29.97F WCI  23
MIDDLETON      CLOUDY    35  31  83 S13G22    29.98F WCI  27
WATERTOWN      CLOUDY    34  32  91 S10G18    30.03S WCI  26
MONROE         CLOUDY    32  30  93 SE21G29   29.95F WCI  20
JANESVILLE     PTSUNNY   36  30  80 S18       30.01F WCI  25
$$

WIZ051-052-058>065-066-070>072-171500-
SOUTHEAST WISCONSIN

CITY           SKY/WX    TMP DP  RH WIND       PRES   REMARKS
MILWAUKEE      CLOUDY    37  31  78 S12       30.06F WCI  29
WAUKESHA       NOT AVBL
MILWAUKEE/TIMM CLOUDY    36  28  75 S10       30.07F WCI  28
RACINE         CLOUDY    37  31  78 S13G22    30.07F WCI  29
BURLINGTON     CLOUDY    37  34  92 S9G17     30.04F WCI  30
KENOSHA        MOSUNNY   36  30  79 S17G24    30.06F WCI  26
FOND DU LAC    CLOUDY    36  29  75 S13       30.01F WCI  27
SHEBOYGAN      CLOUDY    37  34  89 S13       30.03F WCI  29
WEST BEND      CLOUDY    34  32  93 S10G16    30.02F WCI  26
JUNEAU         CLOUDY    33  30  87 S14       30.02F WCI  24
$$

LSZ147-162-171500-
LAKE SUPERIOR

STATION/POSITION TIME  TEMP    WIND        PRES    WAVE
                       AIR SEA DIR/SP/G            HT/PER
                 (UTC) (F)     (DEG/KT/KT) (MB)    (FT/S)
DEVILS ISLAND    1400   36     190/ 12/ 17 1009.1F
SAXON HARBOR     1340   36     180/ 11/ 24 1007.1F
$$

LMZ867-665-643>646-171500-
LAKE MICHIGAN

STATION/POSITION TIME  TEMP    WIND        PRES    WAVE
                       AIR SEA DIR/SP/G            HT/PER
                 (UTC) (F)     (DEG/KT/KT) (MB)    (FT/S)
N MID LAKE BUOY  1350   36 49  170/ 17/ 21 1019.5F   3/ 4
NORTHPORT PIER   1340   38     140/ 21/ 24 1016.6F
KEWAUNEE LAKESHO 1354   41     160/ 20/ 24 1016.0F
SHEBOYGAN LAKESH 1300   39     190/ 14       N/A
PORT WASHINGTON  1330   38     190/ 14/ 19 1019.0F
MILWAUKEE LAKESH 1400   37     190/ 14/ 17   N/A
S MID LAKE BUOY  1350   40 50  160/ 19/ 25 1019.4F   5/ 5
KENOSHA   LAKESH 1400   37     190/ 14/ 20 1018.3
$$

TC  - TEMPERATURE IN CELSIUS
VSB - VISIBILITY IN STATUTE MILES
WCI - WIND CHILL INDEX
HX  - HEAT INDEX





USA.gov is the U.S. government's official web portal to all federal, state and local government web resources and services.